Flag for Thailand Weather past 2 weeks in Hat Yai, Thailand

Now
82 °F

Partly sunny.


Feels Like: 91 °F
Forecast: 75 / 89 °F
Wind: No wind

Location: Hat Yai Airport

Current Time: Jul 31, 2015 at 6:35:09 PM

Latest Report: Jul 31, 2015 at 6:00 PM


Visibility: N/A

Pressure: 29.80 "Hg

Humidity: 84%

Dew point: 77 °F

Location of Hat YaiLocation

Historic Weather in Hat Yai — Graph

°F

Hat Yai temperature yesterday

Maximum temperature yesterday: 90 °F (at 11:30 AM)
Minimum temperature yesterday: 73 °F (at 3:30 AM)
Average temperature yesterday: 80 °F

Past Weeks' High & Low Weather Summary

 TemperatureHumidityPressure
High93 °F (Jul 17, 1:30 PM)100% (Jul 17, 4:00 AM)29.95 "Hg (Jul 17, 4:00 AM)
Low73 °F (Jul 25, 6:30 AM)47% (Jul 25, 3:00 PM)29.68 "Hg (Jul 16, 5:00 PM)
Average81 °F84%29.84 "Hg
* Reported Jul 16 5:00 PM — Jul 31 5:30 PM, Hat Yai, Weather by CustomWeather, © 2015

Note: Actual official high and low records may vary slightly from our data, if they occured in-between our weather recording intervals... More about our weather records

Advertising

Hat Yai weather history for previous 24 hours

 ConditionsComfort  
Time TempWeatherWind HumidityBarometerVisibility
5:30 PM
Fri, Jul 31
84 °FPartly sunny.No wind79%29.77 "HgN/A
5:00 PM84 °FPartly sunny.3 mph74%29.77 "HgN/A
4:30 PM84 °FPartly sunny.5 mph74%29.77 "HgN/A
4:00 PM84 °FPartly sunny.3 mph79%29.77 "HgN/A
3:30 PM84 °FPartly sunny.5 mph79%29.80 "HgN/A
3:00 PM86 °FPartly sunny.5 mph79%29.80 "HgN/A
2:30 PM86 °FPartly sunny.No wind79%29.80 "HgN/A
2:00 PM84 °FBroken clouds.2 mph79%29.80 "HgN/A
1:30 PM81 °FLight rain. Broken clouds.2 mph89%29.83 "HgN/A
1:00 PM82 °FLight rain. Broken clouds.6 mph89%29.86 "HgN/A
12:30 PM82 °FLight rain. Broken clouds.5 mph89%29.89 "Hg5 mi
12:00 PM88 °FBroken clouds.3 mph66%29.89 "HgN/A
11:30 AM88 °FBroken clouds.3 mph66%29.89 "HgN/A
11:00 AM86 °FPartly sunny.3 mph75%29.89 "HgN/A
10:30 AM84 °FPartly sunny.3 mph79%29.89 "HgN/A
10:00 AM82 °FPartly sunny.2 mph84%29.89 "HgN/A
9:30 AM81 °FPartly sunny.No wind89%29.89 "HgN/A
9:00 AM81 °FPartly sunny.No wind89%29.89 "Hg6 mi
8:30 AM79 °FPartly sunny.No wind89%29.89 "Hg5 mi
8:00 AM73 °FRain. Broken clouds.2 mph89%29.92 "Hg4 mi
7:30 AM75 °FFog.No wind100%29.86 "Hg3 mi
7:00 AM75 °FFog.3 mph100%29.86 "Hg3 mi
6:30 AM75 °FFog.2 mph100%29.86 "Hg2 mi
6:00 AM75 °FFog.No wind100%29.86 "Hg2 mi
5:30 AM75 °FFog.No wind100%29.83 "Hg2 mi
5:00 AM75 °FFog.3 mph100%29.83 "Hg2 mi
4:30 AM75 °FFog.No wind94%29.83 "Hg3 mi
4:00 AM75 °FPartly cloudy.No wind94%29.83 "Hg4 mi
3:30 AM75 °FPartly cloudy.No wind100%29.83 "Hg4 mi
3:00 AM75 °FPartly cloudy.No wind100%29.83 "Hg5 mi
2:30 AM77 °FPassing clouds.2 mph94%29.83 "Hg4 mi
2:00 AM77 °FPassing clouds.2 mph94%29.86 "Hg4 mi
1:30 AM77 °FFog.2 mph100%29.86 "Hg3 mi
1:00 AM77 °FFog.2 mph100%29.86 "Hg3 mi
12:30 AM77 °FFog.3 mph100%29.89 "Hg3 mi
12:00 AM77 °FPartly cloudy.2 mph100%29.89 "Hg4 mi
11:30 PM
Thu, Jul 30
79 °FPartly cloudy.No wind94%29.89 "Hg4 mi
11:00 PM79 °FPassing clouds.No wind94%29.89 "Hg4 mi
10:30 PM79 °FPassing clouds.3 mph94%29.89 "Hg4 mi
10:00 PM79 °FPassing clouds.No wind94%29.89 "Hg4 mi
9:30 PM79 °FPassing clouds.No wind94%29.89 "Hg4 mi
9:00 PM79 °FPartly cloudy.No wind94%29.89 "Hg4 mi
8:30 PM79 °FPartly cloudy.No wind94%29.86 "Hg4 mi
8:00 PM79 °FPartly cloudy.No wind94%29.86 "Hg4 mi
7:30 PM79 °FPartly cloudy.2 mph94%29.86 "Hg5 mi
7:00 PM79 °FPartly cloudy.3 mph94%29.83 "Hg4 mi
6:30 PM81 °FPartly sunny.3 mph89%29.83 "Hg5 mi
6:00 PM81 °FPartly sunny.No wind89%29.83 "HgN/A
Weather by CustomWeather, © 2015

See weather overviewHow to use our weather pages